Location: Titusville
(28.6119°N, 80.8078°W)
Time: 01:28:05
(UTC-04:00)

Envisat - Visible Passes

Search period start: 19 August 2018 00:00
Search period end: 29 August 2018 00:00
Orbit: 764 x 766 km, 98.2° (Epoch: 18 August)

Date Brightness Start Highest point End Pass type
(mag) Time Alt. Az. Time Alt. Az. Time Alt. Az.
19 Aug 3.4 20:51:57 10° S 20:56:59 66° WSW 21:02:02 10° NNW visible
20 Aug 3.3 20:15:28 10° SSE 20:20:20 49° ENE 20:25:13 10° N visible
20 Aug 5.8 21:57:10 10° WSW 21:59:31 13° W 22:01:51 10° WNW visible
21 Aug 4.6 21:18:02 10° SSW 21:22:35 33° W 21:27:09 10° NW visible
22 Aug 3.0 20:40:45 10° SSE 20:45:49 86° WSW 20:50:55 10° NNW visible
23 Aug 5.6 21:44:56 10° SW 21:48:16 18° W 21:51:37 10° NW visible
24 Aug 4.1 21:06:34 10° S 21:11:23 44° W 21:16:14 10° NNW visible
25 Aug 3.0 20:29:38 10° SSE 20:34:40 73° ENE 20:39:44 10° N visible
26 Aug 5.2 21:33:04 10° SSW 21:37:02 23° W 21:41:01 10° NW visible
27 Aug 3.6 20:55:14 10° S 21:00:12 59° W 21:05:13 10° NNW visible
28 Aug 3.1 20:18:36 10° SSE 20:23:32 55° ENE 20:28:29 10° N visible
28 Aug 5.9 22:01:03 10° WSW 22:02:45 12° W 22:04:29 10° WNW visible
